Regional Weather Roundup
Issued by NWS

Home | Current Version | Previous Version | Graphics & Text | Print | Product List | Glossary On
Versions: 1 2 3 4 5 6 7 8 9 10 11 12 13 14 15 16 17 18 19 20 21 22 23 24 25 26 27 28 29 30 31 32 33 34 35 36 37 38 39 40 41 42 43 44 45 46 47 48 49 50
000
ASUS43 KMPX 311010
RWRMN
WEATHER ROUNDUP FOR MINNESOTA
NATIONAL WEATHER SERVICE TWIN CITIES/CHANHASSEN MN
500 AM CDT MON AUG 31 2015


NOTE: "FAIR" INDICATES FEW OR NO CLOUDS BELOW 12,000 FEET WITH NO
SIGNIFICANT WEATHER AND/OR OBSTRUCTIONS TO VISIBILITY. N/A MEANS
CURRENT SKY AND/OR WEATHER CONDITIONS ARE NOT AVAILABLE.

MNZ060>063-068>070-311100-
   Twin Cities Metro

CITY           SKY/WX    TMP DP  RH WIND       PRES   REMARKS
TWIN CITIES    MOCLDY    63  62  97 SE7       29.93S
ST PAUL        PTCLDY    63  63 100 SE9       29.93F
CRYSTAL        PTCLDY    66  64  93 S7        29.90F
BLAINE         PTCLDY    66  64  94 S5        29.92S FOG
LAKEVILLE      MOCLDY    63  63 100 S6        29.94S FOG
EDEN PRAIRIE   PTCLDY    67  64  90 S10       29.92S
SOUTH ST PAUL  CLEAR     64  62  94 CALM      29.94S FOG
LAKE ELMO      FAIR      63  61  94 S6        29.95S FOG
$$
MNZ001>005-007-008-013>017-022>024-027-028-311100-
   Northwest Minnesota

CITY           SKY/WX    TMP DP  RH WIND       PRES   REMARKS
BEMIDJI        CLEAR     64  59  83 S10       29.76F
HALLOCK        PTCLDY    68  64  88 S14       29.63R
ROSEAU         CLEAR     68  61  77 S12       29.66F
WARROAD        CLEAR     68  63  83 S6        29.68S
THIEF RVR FALL CLEAR    N/A N/A N/A S7        29.68S
CROOKSTON      PTCLDY    66  61  82 S14       29.68S
FOSSTON        CLEAR     64  55  72 S10       29.72S
DETROIT LAKES  CLEAR     66  59  77 S13       29.76F
MOORHEAD       CLEAR     66  61  82 S16G22    29.70F
PARK RAPIDS    CLEAR     64  60  87 S13       29.79F
MAHNOMEN       FAIR      66  58  74 S9        29.71F
$$
MNZ006-009>011-018-025>026-311100-
   North Central Minnesota

CITY           SKY/WX    TMP DP  RH WIND       PRES   REMARKS
BAUDETTE       PTCLDY    66  60  81 S8        29.70F
FLAG ISLAND    CLEAR     70  64  83 S12       29.66F
INTL FALLS     PTCLDY    65  62  90 VRB5      29.75F
WASKISH        CLEAR     66  61  82 S8        29.72F
BIG FORK       CLEAR     64  61  88 S7        29.80S
LONGVILLE      PTCLDY    64  63  94 S6        29.82S
GRAND RAPIDS     N/A     64  61  88 S13       29.84S
CRANE LAKE     CLEAR     64  63  94 S5        29.82S
ORR            CLEAR     63  61  94 S7        29.79F
COOK           CLEAR     64  61  88 SE6       29.83F
WALKER         FAIR      65  60  85 S10G21    29.78F
$$
MNZ012-019>021-037-311100-
   Northeast Minnesota

CITY           SKY/WX    TMP DP  RH WIND       PRES   REMARKS
DULUTH         PTCLDY    64  62  93 S8        29.89S
ELY            CLEAR     64  61  88 SW7       29.86S
HIBBING        CLOUDY    64  63  96 VRB5      29.86S
EVELETH        FOG       57  57 100 CALM      29.88S VSB 1/4
DULUTH HARBOR  PTCLDY    66  64  94 S6        29.88S
TWO HARBORS    CLOUDY    70  64  83 SW10      29.87F
SILVER BAY     CLOUDY    66  64  94 S6        29.87S FOG
GRAND MARAIS     N/A     55  53  93 CALM      29.88R
G MARAIS ARPRT FOG       63  59  88 S3        29.92S VSB 1/4
$$
MNZ029>031-032-039>041-046>048-054>057-064-311100-
   West Central Minnesota

CITY           SKY/WX    TMP DP  RH WIND       PRES   REMARKS
FERGUS FALLS   CLEAR     66  59  77 S17       29.75F
WHEATON        CLEAR     63  59  88 SE10G18   29.76S
MORRIS         PTCLDY    63  63 100 SE10      29.79F FOG
ALEXANDRIA     CLEAR     65  62  90 S12       29.84F
ELBOW LAKE     FAIR      64  61  89 S16       29.78S
WADENA         CLEAR     63  61  94 S5        29.81S FOG
GLENWOOD       CLEAR     63  63 100 S9        29.85F
APPLETON       PTCLDY    64  61  88 SE7       29.81S
BENSON         PTCLDY    63  61  94 S8        29.83F FOG
ORTONVILLE     PTCLDY    63  61  94 SE8       29.78F
MADISON        PTCLDY    66  63  88 S8        29.81S
WILLMAR        MOCLDY    64  64 100 SE7       29.88S FOG
$$
MNZ033>034-036-042>043-049>051-058-059-311100-
   Central Minnesota

CITY           SKY/WX    TMP DP  RH WIND       PRES   REMARKS
ST CLOUD       PTCLDY    64  64 100 S9        29.88S FOG
SAUK CENTRE    PTSUNNY   62  62  99 SE6       29.85F FOG
PAYNESVILLE    PTCLDY    65  64  97 SE8       29.88S FOG
AITKIN         PTCLDY    66  61  82 S8        29.85S
PINE RIVER     CLEAR     63  63 100 S6        29.86F FOG
BRAINERD       PTCLDY    63  62  97 S9        29.85S FOG
STAPLES        CLEAR     63  61  94 S10       29.82F
LONG PRAIRIE   CLOUDY    61  61 100 SE8       29.85F FOG
LITTLE FALLS   CLOUDY    63  61  94 SE6       29.86F FOG
LITCHFIELD     PTCLDY    66  66 100 S3        29.89F FOG
BUFFALO        CLOUDY    66  63  89 S9G16     29.92R
MAPLE LAKE     CLOUDY    67  65  95 S6        29.91S FOG
$$
MNZ037-044-045-052-053-311100-
   East Central Minnesota

CITY           SKY/WX    TMP DP  RH WIND       PRES   REMARKS
PRINCETON      CLOUDY    66  64  94 S7        29.90S
MORA           CLOUDY    64  63  94 S8        29.91F
CAMBRIDGE      CLOUDY    68  61  77 S8        29.89S
RUSH CITY      CLOUDY    64  63  95 S5        29.92R
MOOSE LAKE     CLOUDY    64  63  94 S6        29.87F
HINCKLEY       CLOUDY    64  64 100 S8        29.91S FOG
CLOQUET        CLOUDY    64  63  94 S9        29.89S
MCGREGOR       CLEAR     63  61  94 S6        29.87S
$$
MNZ071>073-080-081-089-090-097-098-311100-
   Southwest Minnesota

CITY           SKY/WX    TMP DP  RH WIND       PRES   REMARKS
MONTEVIDEO     PTCLDY    63  63 100 S8        29.85F FOG
GRANITE FALLS  CLOUDY    63  63  97 SE7       29.87S FOG
CANBY          CLEAR     69  62  79 SW13G23   29.82S
MARSHALL       CLEAR     66  61  82 SW16G22   29.86S
REDWOOD FALLS  CLEAR     64  62  93 S9        29.88S
OLIVIA         CLEAR     59  57  94 S8        29.87S FOG
PIPESTONE      PTCLDY    66  64  94 S15G21    29.90F FOG
WINDOM         CLEAR     66  63  88 S10G16    29.92S
WORTHINGTON    CLEAR     64  61  88 S14       29.93S
JACKSON        CLEAR     64  63  94 S10       29.95R FOG
TRACY          CLEAR     68  65  91 SW20G26   29.87S
SLAYTON        CLEAR     65  65  99 S14G21    29.92S FOG
$$
MNZ065>067-074>077-082>085-091>093-311100-
   South Central Minnesota

CITY           SKY/WX    TMP DP  RH WIND       PRES   REMARKS
MANKATO        CLOUDY    63  61  94 S6        29.93S
NEW ULM        CLEAR     63  63 100 S8        29.91S FOG
ST JAMES       CLEAR     64  64 100 S8        29.93S
FAIRMONT       CLEAR     64  59  82 S7        29.94S
GLENCOE        CLEAR     64  64 100 S5        29.91S FOG
FARIBAULT      CLOUDY    64  64 100 S7        29.95S FOG
OWATONNA       CLOUDY    66  64  94 S8        29.96S FOG
WASECA         CLOUDY    64  63  94 S9        29.96S FOG
ALBERT LEA     CLOUDY    66  64  94 S8        29.97S FOG
$$
MNZ078>079-086>088-094>096-311100-
   Southeast Minnesota

CITY           SKY/WX    TMP DP  RH WIND       PRES   REMARKS
ROCHESTER      CLOUDY    66  65  96 S14       30.00R FOG
RED WING       MOCLDY    64  63  94 S7        29.95S
STANTON        CLOUDY    67  64  91 S6        29.94S FOG
DODGE CENTER   CLOUDY    64  64 100 SW13      29.98S FOG
WINONA         CLOUDY    61  61 100 CALM      29.99R
PRESTON        CLOUDY    64  63  96 SW8       30.01S FOG
$$
ABBREVIATIONS USED IN REMARKS
   TC - TEMPERATURES IN CELSIUS
  WCI - WIND CHILL INDEX
   HX - HEAT INDEX
  VSB - VISIBILITY
$$


USA.gov is the U.S. government's official web portal to all federal, state and local government web resources and services.